Location: Newark
(41.9000°N, 12.4833°E)
Time: 05:16:23
(UTC+00:00)

EO-88 - Pass Details

Date: 25 May 2019
Orbit: 484 x 494 km, 97.4° (Epoch: 17 June)

Event Time Altitude Azimuth Distance (km) Brightness Sun altitude
Exits shadow 19:52:27 17° 102° (ESE) 1,332 ? -12.7°
Maximum altitude 19:53:58 21° 69° (ENE) 1,152 ? -12.9°
Drops below altitude 10° 19:56:46 10° 19° (NNE) 1,699 ? -13.3°
Sets 19:59:12 0° 3° (N) 2,587 ? -13.6°
